Weather Roundup
Issued by NWS

Home | Current Version | Previous Version | Graphics & Text | Print | Product List | Glossary Off
Versions: 1 2 3 4 5 6 7 8 9 10 11 12 13 14 15 16 17 18 19 20 21 22 23 24 25 26 27 28 29 30 31 32 33 34 35 36 37 38 39 40 41 42 43 44 45 46 47 48 49 50

000
NZUS93 KARX 191559
HRRWXR

CURRENT HOURLY OBSERVATIONS ACROSS
MUCH OF THE UPPER MISSISSIPPI VALLEY
NATIONAL WEATHER SERVICE LA CROSSE WI
1100 AM CDT TUE SEP 19 2017


...SOUTHEAST MINNESOTA...


CITY           SKY/WX    TMP DP  RH WIND       PRES   REMARKS
ROCHESTER      SUNNY     69  63  81 SE9       29.94F
ROCHESTER/MAYO FAIR      67  62  84 E8        29.93F
WINONA         MOSUNNY   70  61  73 E9        29.95F
AUSTIN         MOSUNNY   70  63  78 S8        29.91F
ALBERT LEA     CLOUDY    66  66 100 SE12G17   29.91F FOG
DODGE CENTER   SUNNY     72  63  73 SE9       29.92F
PRESTON        MOSUNNY   64  59  85 S7        29.95F
OWATONNA       MOSUNNY   72  64  78 SE14      29.90F
FARIBAULT      PTSUNNY   70  64  83 SE10      29.90F
$$

...ELSEWHERE IN MINNESOTA...


CITY           SKY/WX    TMP DP  RH WIND       PRES   REMARKS
MINNEAPOLIS    MOSUNNY   70  63  78 SE12      29.89F
INTNL FALLS    CLOUDY    59  55  87 SE12      29.89F
DULUTH         CLOUDY    59  58  96 SE8       29.94F
RED WING       SUNNY     70  59  68 E10       29.91F
REDWOOD FALLS  CLOUDY    68  64  87 SE16G23   29.81F FOG
MANKATO        CLOUDY    66  63  90 SE15      29.88S
WORTHINGTON    CLOUDY    68  65  90 SE16G22   29.82F
FAIRMONT       CLOUDY    67  64  90 SE15      29.87S
$$

...SOUTHWEST WISCONSIN...


CITY           SKY/WX    TMP DP  RH WIND       PRES   REMARKS
LA CROSSE      SUNNY     69  60  73 E8        29.95F
PRAIRIE DU CHI SUNNY     70  58  66 E3        29.96S
BOSCOBEL       SUNNY     73  59  61 VRB6      29.97S
LONE ROCK      NOT AVBL
PLATTEVILLE    SUNNY     70  64  81 E5        29.98F
FORT MC COY    SUNNY     67  58  73 NE5       29.98S
MAUSTON-NEW LI SUNNY     68  58  71 E3        29.98F
VIROQUA        FAIR      67  62  81 CALM      29.98S
WIS DELLS      NOT AVBL
$$

...ELSEWHERE IN WISCONSIN...


CITY           SKY/WX    TMP DP  RH WIND       PRES   REMARKS
MILWAUKEE      MOSUNNY   74  65  73 NE8       29.99S
MADISON        MOSUNNY   71  60  68 E7        29.99S
GREEN BAY      CLOUDY    68  63  84 E5        30.02S
EAU CLAIRE     SUNNY     67  58  72 SE8       29.94F
BLACK RVR FLS  FAIR      69  56  63 SE5       29.97F
MEDFORD        MOSUNNY   64  56  75 SE7       30.01S
WAUSAU         SUNNY     67  57  70 E8        30.00F
WIS RAPIDS     SUNNY     72  56  57 E8        30.00F
MARSHFIELD     SUNNY     67  55  65 SE9       29.99F
RICE LAKE      SUNNY     65  56  74 E12       29.97F
$$

...NORTHEAST IOWA...


CITY           SKY/WX    TMP DP  RH WIND       PRES   REMARKS
WATERLOO       PTSUNNY   68  63  84 SE10      29.93S
DUBUQUE        MOSUNNY   66  63  90 E3        29.98S
DECORAH        CLOUDY    63  61  94 VRB5      29.96S
MASON CITY     CLOUDY    68  64  87 SE16      29.92F
CHARLES CITY   MOSUNNY   70  66  88 SE13      29.93F
OELWEIN        CLOUDY    64  64 100 SE9       29.97R FOG
$$

...ELSEWHERE IN IOWA...


CITY           SKY/WX    TMP DP  RH WIND       PRES   REMARKS
DES MOINES     CLOUDY    69  66  90 SE12      29.90S
IOWA CITY      CLOUDY    68  66  93 SE5       29.97R FOG
FORT DODGE     CLOUDY    70  65  84 SE10      29.89S
MARSHALLTOWN   MOSUNNY   72  67  84 SE15      29.91F
CEDAR RAPIDS   CLOUDY    65  65 100 SE8       29.95S FOG
$$

...NORTHERN ILLINOIS...


CITY           SKY/WX    TMP DP  RH WIND       PRES   REMARKS
CHICAGO-OHARE  CLOUDY    71  66  84 NE6       29.97S
CHICAGO-MIDWAY LGT RAIN  70  66  87 NE6       29.96F
MOLINE         SUNNY     71  64  78 S5        29.96S HAZE
ROCKFORD       MOSUNNY   72  63  73 NE7       29.99S
PEORIA         CLOUDY    72  67  84 CALM      29.97S
$$

NOTE: "FAIR" INDICATES FEW OR NO CLOUDS BELOW 12,000 FEET WITH NO
SIGNIFICANT WEATHER AND/OR OBSTRUCTIONS TO VISIBILITY. WIND
SPEEDS ARE IN MILES-PER-HOUR.




USA.gov is the U.S. government's official web portal to all federal, state and local government web resources and services.